contact:dominique.lefevre@mio.osupytheas.fr, maurice.libes@osupytheas.fr, didier.mallarino@osupytheas.fr
Project:EMSO http://www.emso-fr.org/EMSO-France
Depth: 2436.0 m
Title:EMSO Ligure Ouest : Data MII capteur CSTAR
DateTime,Latitude,Longitude,Instrument_Serial,Reference_Counts,Signal_Counts,Corrected_Signal_raw_counts,Calculated_Beam_c_inverse_meters,Internal_thermistor_counts
DateTime,Latitude,Longitude,Instrument_Serial,Reference_Counts,Signal_Counts,Corrected_Signal_raw_counts,Calculated_Beam_c_inverse_meters,Internal_thermistor_counts
2023-10-10T00:00:11,42.805,6.029,CST-1368DR,4141,4464,11426,01.250,553
2023-10-10T00:03:12,42.805,6.029,CST-1368DR,4141,4462,11423,01.251,553
2023-10-10T00:06:14,42.805,6.029,CST-1368DR,4141,4463,11426,01.250,553
2023-10-10T00:09:15,42.805,6.029,CST-1368DR,4141,4463,11424,01.250,553
2023-10-10T00:12:17,42.805,6.029,CST-1368DR,4141,4463,11426,01.250,552
2023-10-10T00:15:19,42.805,6.029,CST-1368DR,4141,4463,11425,01.250,553
2023-10-10T00:18:20,42.805,6.029,CST-1368DR,4141,4464,11426,01.250,553
2023-10-10T00:21:22,42.805,6.029,CST-1368DR,4141,4464,11426,01.250,553
2023-10-10T00:24:23,42.805,6.029,CST-1368DR,4141,4464,11428,01.249,553
2023-10-10T00:27:25,42.805,6.029,CST-1368DR,4141,4464,11428,01.249,553
2023-10-10T00:30:26,42.805,6.029,CST-1368DR,4141,4464,11426,01.250,553
2023-10-10T00:33:28,42.805,6.029,CST-1368DR,4141,4464,11427,01.249,553
2023-10-10T00:36:30,42.805,6.029,CST-1368DR,4141,4464,11427,01.249,553
2023-10-10T00:39:31,42.805,6.029,CST-1368DR,4141,4464,11428,01.249,553
2023-10-10T00:42:33,42.805,6.029,CST-1368DR,4141,4463,11425,01.250,553
2023-10-10T00:45:34,42.805,6.029,CST-1368DR,4141,4463,11426,01.250,553
2023-10-10T00:48:36,42.805,6.029,CST-1368DR,4141,4464,11426,01.250,553
2023-10-10T00:51:37,42.805,6.029,CST-1368DR,4141,4464,11428,01.249,553
2023-10-10T00:54:39,42.805,6.029,CST-1368DR,4141,4463,11424,01.250,553
2023-10-10T00:57:41,42.805,6.029,CST-1368DR,4141,4465,11431,01.248,553
2023-10-10T01:00:42,42.805,6.029,CST-1368DR,4141,4464,11427,01.249,553
2023-10-10T01:03:44,42.805,6.029,CST-1368DR,4141,4463,11426,01.250,553
2023-10-10T01:06:45,42.805,6.029,CST-1368DR,4141,4464,11426,01.250,553
2023-10-10T01:09:47,42.805,6.029,CST-1368DR,4141,4462,11422,01.251,553
2023-10-10T01:12:49,42.805,6.029,CST-1368DR,4141,4464,11428,01.249,553
2023-10-10T01:15:50,42.805,6.029,CST-1368DR,4141,4464,11427,01.249,553
2023-10-10T01:18:52,42.805,6.029,CST-1368DR,4141,4464,11427,01.249,553
2023-10-10T01:21:53,42.805,6.029,CST-1368DR,4141,4463,11424,01.250,552
2023-10-10T01:24:55,42.805,6.029,CST-1368DR,4141,4464,11426,01.250,553
2023-10-10T01:27:56,42.805,6.029,CST-1368DR,4141,4464,11427,01.249,553
2023-10-10T01:30:58,42.805,6.029,CST-1368DR,4141,4463,11426,01.250,553
2023-10-10T01:34:00,42.805,6.029,CST-1368DR,4141,4464,11427,01.249,552
2023-10-10T01:37:01,42.805,6.029,CST-1368DR,4141,4464,11426,01.250,553
2023-10-10T01:40:03,42.805,6.029,CST-1368DR,4141,4464,11428,01.249,553
2023-10-10T01:43:04,42.805,6.029,CST-1368DR,4141,4464,11426,01.250,553
2023-10-10T01:46:06,42.805,6.029,CST-1368DR,4141,4464,11427,01.249,553
2023-10-10T01:49:07,42.805,6.029,CST-1368DR,4141,4464,11426,01.250,553
2023-10-10T01:52:09,42.805,6.029,CST-1368DR,4141,4464,11427,01.249,553
2023-10-10T01:55:11,42.805,6.029,CST-1368DR,4141,4464,11427,01.249,553
2023-10-10T01:58:12,42.805,6.029,CST-1368DR,4141,4464,11428,01.249,552
2023-10-10T02:01:14,42.805,6.029,CST-1368DR,4141,4464,11427,01.249,552
2023-10-10T02:04:15,42.805,6.029,CST-1368DR,4141,4464,11428,01.249,553
2023-10-10T02:07:17,42.805,6.029,CST-1368DR,4141,4463,11426,01.250,553
2023-10-10T02:10:19,42.805,6.029,CST-1368DR,4141,4463,11426,01.250,553
2023-10-10T02:13:20,42.805,6.029,CST-1368DR,4141,4464,11427,01.249,553
2023-10-10T02:16:22,42.805,6.029,CST-1368DR,4141,4464,11427,01.249,552
2023-10-10T02:19:23,42.805,6.029,CST-1368DR,4141,4464,11427,01.249,553
2023-10-10T02:22:25,42.805,6.029,CST-1368DR,4141,4462,11423,01.251,553
2023-10-10T02:25:26,42.805,6.029,CST-1368DR,4141,4463,11424,01.250,553
2023-10-10T02:28:28,42.805,6.029,CST-1368DR,4141,4462,11421,01.251,553
2023-10-10T02:31:30,42.805,6.029,CST-1368DR,4141,4463,11426,01.250,552
2023-10-10T02:34:31,42.805,6.029,CST-1368DR,4141,4463,11426,01.250,553
2023-10-10T02:37:33,42.805,6.029,CST-1368DR,4141,4464,11426,01.250,552
2023-10-10T02:40:34,42.805,6.029,CST-1368DR,4141,4464,11426,01.250,553
2023-10-10T02:43:36,42.805,6.029,CST-1368DR,4141,4464,11428,01.249,552
2023-10-10T02:46:37,42.805,6.029,CST-1368DR,4141,4463,11426,01.250,552
2023-10-10T02:49:39,42.805,6.029,CST-1368DR,4141,4463,11426,01.250,552
2023-10-10T02:52:41,42.805,6.029,CST-1368DR,4141,4464,11427,01.249,553
2023-10-10T02:55:42,42.805,6.029,CST-1368DR,4141,4464,11427,01.249,553
2023-10-10T02:58:44,42.805,6.029,CST-1368DR,4141,4463,11424,01.250,553
2023-10-10T03:01:45,42.805,6.029,CST-1368DR,4141,4463,11424,01.250,552
2023-10-10T03:04:47,42.805,6.029,CST-1368DR,4141,4463,11426,01.250,553
2023-10-10T03:07:48,42.805,6.029,CST-1368DR,4141,4464,11428,01.249,553
2023-10-10T03:10:50,42.805,6.029,CST-1368DR,4141,4464,11428,01.249,553
2023-10-10T03:13:52,42.805,6.029,CST-1368DR,4141,4463,11424,01.250,553
2023-10-10T03:16:53,42.805,6.029,CST-1368DR,4141,4463,11425,01.250,553
2023-10-10T03:19:55,42.805,6.029,CST-1368DR,4141,4464,11427,01.249,553
2023-10-10T03:22:56,42.805,6.029,CST-1368DR,4141,4464,11426,01.250,553
2023-10-10T03:25:58,42.805,6.029,CST-1368DR,4141,4463,11424,01.250,552
2023-10-10T03:29:00,42.805,6.029,CST-1368DR,4141,4463,11425,01.250,553
2023-10-10T03:32:01,42.805,6.029,CST-1368DR,4141,4463,11425,01.250,552
2023-10-10T03:35:03,42.805,6.029,CST-1368DR,4141,4463,11425,01.250,553
2023-10-10T03:38:04,42.805,6.029,CST-1368DR,4141,4461,11419,01.252,553
2023-10-10T03:41:06,42.805,6.029,CST-1368DR,4141,4462,11423,01.251,553
2023-10-10T03:44:07,42.805,6.029,CST-1368DR,4141,4463,11424,01.250,553
2023-10-10T03:47:09,42.805,6.029,CST-1368DR,4141,4463,11426,01.250,553
2023-10-10T03:50:11,42.805,6.029,CST-1368DR,4141,4460,11417,01.253,553
2023-10-10T03:53:12,42.805,6.029,CST-1368DR,4141,4462,11422,01.251,553
2023-10-10T03:56:14,42.805,6.029,CST-1368DR,4141,4463,11424,01.250,553
2023-10-10T03:59:15,42.805,6.029,CST-1368DR,4141,4463,11424,01.250,553
2023-10-10T04:02:17,42.805,6.029,CST-1368DR,4141,4462,11421,01.251,552
2023-10-10T04:05:18,42.805,6.029,CST-1368DR,4141,4463,11424,01.250,553
2023-10-10T04:08:20,42.805,6.029,CST-1368DR,4141,4464,11426,01.250,553
2023-10-10T04:11:22,42.805,6.029,CST-1368DR,4141,4464,11426,01.250,553
2023-10-10T04:14:23,42.805,6.029,CST-1368DR,4141,4462,11423,01.251,553
2023-10-10T04:17:25,42.805,6.029,CST-1368DR,4141,4463,11424,01.250,553
2023-10-10T04:20:26,42.805,6.029,CST-1368DR,4141,4463,11425,01.250,553
2023-10-10T04:23:28,42.805,6.029,CST-1368DR,4141,4463,11424,01.250,553
2023-10-10T04:26:30,42.805,6.029,CST-1368DR,4141,4463,11424,01.250,553
2023-10-10T04:29:31,42.805,6.029,CST-1368DR,4141,4463,11426,01.250,553
2023-10-10T04:32:34,42.805,6.029,CST-1368DR,4141,4460,11417,01.253,553
2023-10-10T04:35:36,42.805,6.029,CST-1368DR,4141,4462,11423,01.251,553
2023-10-10T04:38:37,42.805,6.029,CST-1368DR,4141,4463,11426,01.250,553
2023-10-10T04:41:39,42.805,6.029,CST-1368DR,4141,4463,11424,01.250,553
2023-10-10T04:44:41,42.805,6.029,CST-1368DR,4141,4463,11425,01.250,552
2023-10-10T04:47:42,42.805,6.029,CST-1368DR,4141,4463,11426,01.250,553
2023-10-10T04:50:44,42.805,6.029,CST-1368DR,4141,4463,11425,01.250,553
2023-10-10T04:53:45,42.805,6.029,CST-1368DR,4141,4465,11429,01.249,553
2023-10-10T04:56:47,42.805,6.029,CST-1368DR,4141,4464,11426,01.250,553
2023-10-10T04:59:48,42.805,6.029,CST-1368DR,4141,4464,11426,01.250,553
2023-10-10T05:02:50,42.805,6.029,CST-1368DR,4141,4464,11426,01.250,553
2023-10-10T05:05:52,42.805,6.029,CST-1368DR,4141,4463,11426,01.250,553
2023-10-10T05:08:53,42.805,6.029,CST-1368DR,4141,4464,11426,01.250,552
2023-10-10T05:11:55,42.805,6.029,CST-1368DR,4141,4463,11425,01.250,553
2023-10-10T05:14:56,42.805,6.029,CST-1368DR,4141,4463,11425,01.250,553
2023-10-10T05:17:58,42.805,6.029,CST-1368DR,4141,4464,11427,01.249,553
2023-10-10T05:20:59,42.805,6.029,CST-1368DR,4141,4464,11426,01.250,552
2023-10-10T05:24:01,42.805,6.029,CST-1368DR,4141,4463,11425,01.250,553
2023-10-10T05:27:03,42.805,6.029,CST-1368DR,4141,4464,11426,01.250,553
2023-10-10T05:30:04,42.805,6.029,CST-1368DR,4141,4464,11427,01.249,553
2023-10-10T05:33:06,42.805,6.029,CST-1368DR,4141,4464,11428,01.249,553
2023-10-10T05:36:07,42.805,6.029,CST-1368DR,4141,4463,11426,01.250,553
2023-10-10T05:39:09,42.805,6.029,CST-1368DR,4141,4462,11422,01.251,553
2023-10-10T05:42:11,42.805,6.029,CST-1368DR,4141,4464,11426,01.250,553
2023-10-10T05:45:12,42.805,6.029,CST-1368DR,4141,4464,11426,01.250,553
2023-10-10T05:48:14,42.805,6.029,CST-1368DR,4141,4464,11426,01.250,553
2023-10-10T05:51:15,42.805,6.029,CST-1368DR,4141,4463,11424,01.250,553
2023-10-10T05:54:17,42.805,6.029,CST-1368DR,4141,4463,11426,01.250,553
2023-10-10T05:57:18,42.805,6.029,CST-1368DR,4141,4464,11426,01.250,553
2023-10-10T06:00:20,42.805,6.029,CST-1368DR,4141,4462,11423,01.251,553
2023-10-10T06:03:22,42.805,6.029,CST-1368DR,4141,4464,11426,01.250,552
2023-10-10T06:06:23,42.805,6.029,CST-1368DR,4141,4464,11427,01.249,552
2023-10-10T06:09:25,42.805,6.029,CST-1368DR,4141,4463,11426,01.250,553
2023-10-10T06:12:26,42.805,6.029,CST-1368DR,4141,4463,11424,01.250,553
2023-10-10T06:15:28,42.805,6.029,CST-1368DR,4141,4463,11425,01.250,553
2023-10-10T06:18:29,42.805,6.029,CST-1368DR,4141,4464,11426,01.250,553
2023-10-10T06:21:31,42.805,6.029,CST-1368DR,4141,4463,11425,01.250,553
2023-10-10T06:24:33,42.805,6.029,CST-1368DR,4140,4462,11426,01.250,553
2023-10-10T06:27:34,42.805,6.029,CST-1368DR,4141,4463,11426,01.250,553
2023-10-10T06:30:37,42.805,6.029,CST-1368DR,4141,4463,11426,01.250,553
2023-10-10T06:33:39,42.805,6.029,CST-1368DR,4141,4463,11425,01.250,553
2023-10-10T06:36:40,42.805,6.029,CST-1368DR,4141,4463,11424,01.250,553
2023-10-10T06:39:42,42.805,6.029,CST-1368DR,4141,4464,11427,01.249,552
2023-10-10T06:42:44,42.805,6.029,CST-1368DR,4140,4463,11428,01.249,553
2023-10-10T06:45:45,42.805,6.029,CST-1368DR,4141,4463,11425,01.250,553
2023-10-10T06:48:47,42.805,6.029,CST-1368DR,4140,4463,11426,01.250,553
2023-10-10T06:51:48,42.805,6.029,CST-1368DR,4141,4463,11425,01.250,553
2023-10-10T06:54:50,42.805,6.029,CST-1368DR,4141,4463,11426,01.250,552
2023-10-10T06:57:52,42.805,6.029,CST-1368DR,4141,4463,11425,01.250,553
2023-10-10T07:00:53,42.805,6.029,CST-1368DR,4140,4463,11428,01.249,553
2023-10-10T07:03:55,42.805,6.029,CST-1368DR,4141,4463,11426,01.250,553
2023-10-10T07:06:56,42.805,6.029,CST-1368DR,4141,4464,11427,01.249,553
2023-10-10T07:09:58,42.805,6.029,CST-1368DR,4141,4463,11424,01.250,553
2023-10-10T07:12:59,42.805,6.029,CST-1368DR,4140,4463,11426,01.250,552
2023-10-10T07:16:01,42.805,6.029,CST-1368DR,4140,4463,11428,01.249,553
2023-10-10T07:19:03,42.805,6.029,CST-1368DR,4140,4463,11428,01.249,553
2023-10-10T07:22:04,42.805,6.029,CST-1368DR,4140,4463,11426,01.250,553
2023-10-10T07:25:06,42.805,6.029,CST-1368DR,4141,4463,11425,01.250,553
2023-10-10T07:28:07,42.805,6.029,CST-1368DR,4141,4464,11426,01.250,552
2023-10-10T07:31:09,42.805,6.029,CST-1368DR,4140,4462,11424,01.250,553
2023-10-10T07:34:10,42.805,6.029,CST-1368DR,4141,4463,11424,01.250,553
2023-10-10T07:37:12,42.805,6.029,CST-1368DR,4140,4463,11428,01.249,552
2023-10-10T07:40:14,42.805,6.029,CST-1368DR,4140,4461,11421,01.251,553
2023-10-10T07:43:15,42.805,6.029,CST-1368DR,4140,4465,11433,01.247,553
2023-10-10T07:46:17,42.805,6.029,CST-1368DR,4141,4463,11424,01.250,553
2023-10-10T07:49:18,42.805,6.029,CST-1368DR,4141,4463,11426,01.250,553
2023-10-10T07:52:20,42.805,6.029,CST-1368DR,4141,4464,11427,01.249,553
2023-10-10T07:55:22,42.805,6.029,CST-1368DR,4141,4463,11425,01.250,553
2023-10-10T07:58:23,42.805,6.029,CST-1368DR,4140,4464,11430,01.248,553
2023-10-10T08:01:25,42.805,6.029,CST-1368DR,4141,4463,11424,01.250,553
2023-10-10T08:04:26,42.805,6.029,CST-1368DR,4141,4463,11425,01.250,553
2023-10-10T08:07:28,42.805,6.029,CST-1368DR,4140,4463,11428,01.249,553
2023-10-10T08:10:29,42.805,6.029,CST-1368DR,4141,4464,11426,01.250,552
2023-10-10T08:13:31,42.805,6.029,CST-1368DR,4140,4463,11428,01.249,553
2023-10-10T08:16:33,42.805,6.029,CST-1368DR,4141,4463,11425,01.250,553
2023-10-10T08:19:34,42.805,6.029,CST-1368DR,4140,4461,11423,01.251,553
2023-10-10T08:22:36,42.805,6.029,CST-1368DR,4141,4463,11426,01.250,552
2023-10-10T08:25:37,42.805,6.029,CST-1368DR,4140,4463,11427,01.249,553
2023-10-10T08:28:39,42.805,6.029,CST-1368DR,4141,4463,11425,01.250,552
2023-10-10T08:31:41,42.805,6.029,CST-1368DR,4141,4463,11424,01.250,553
2023-10-10T08:34:42,42.805,6.029,CST-1368DR,4140,4462,11425,01.250,553
2023-10-10T08:37:44,42.805,6.029,CST-1368DR,4141,4462,11423,01.251,553
2023-10-10T08:40:45,42.805,6.029,CST-1368DR,4141,4463,11424,01.250,553
2023-10-10T08:43:47,42.805,6.029,CST-1368DR,4141,4462,11423,01.251,553
2023-10-10T08:46:48,42.805,6.029,CST-1368DR,4140,4463,11426,01.250,553
2023-10-10T08:49:50,42.805,6.029,CST-1368DR,4141,4463,11424,01.250,553
2023-10-10T08:52:52,42.805,6.029,CST-1368DR,4141,4460,11417,01.253,553
2023-10-10T08:55:53,42.805,6.029,CST-1368DR,4141,4462,11423,01.251,553
2023-10-10T08:58:55,42.805,6.029,CST-1368DR,4141,4463,11425,01.250,553
2023-10-10T09:01:56,42.805,6.029,CST-1368DR,4141,4462,11422,01.251,552
2023-10-10T09:04:58,42.805,6.029,CST-1368DR,4141,4463,11424,01.250,553
2023-10-10T09:08:00,42.805,6.029,CST-1368DR,4141,4461,11420,01.252,553
2023-10-10T09:11:01,42.805,6.029,CST-1368DR,4141,4462,11423,01.251,553
2023-10-10T09:14:03,42.805,6.029,CST-1368DR,4141,4463,11424,01.250,553
2023-10-10T09:17:04,42.805,6.029,CST-1368DR,4141,4463,11424,01.250,553
2023-10-10T09:20:06,42.805,6.029,CST-1368DR,4141,4463,11425,01.250,553
2023-10-10T09:23:07,42.805,6.029,CST-1368DR,4141,4464,11426,01.250,553
2023-10-10T09:26:09,42.805,6.029,CST-1368DR,4141,4464,11426,01.250,552
2023-10-10T09:29:11,42.805,6.029,CST-1368DR,4141,4464,11427,01.249,553
2023-10-10T09:32:12,42.805,6.029,CST-1368DR,4141,4463,11424,01.250,553
2023-10-10T09:35:14,42.805,6.029,CST-1368DR,4141,4463,11424,01.250,553
2023-10-10T09:38:15,42.805,6.029,CST-1368DR,4141,4463,11426,01.250,552
2023-10-10T09:41:17,42.805,6.029,CST-1368DR,4140,4463,11427,01.249,553
2023-10-10T09:44:18,42.805,6.029,CST-1368DR,4140,4462,11426,01.250,553
2023-10-10T09:47:20,42.805,6.029,CST-1368DR,4140,4455,11406,01.257,553
2023-10-10T09:50:22,42.805,6.029,CST-1368DR,4140,4462,11424,01.250,552
2023-10-10T09:53:23,42.805,6.029,CST-1368DR,4140,4463,11426,01.250,553
2023-10-10T09:56:25,42.805,6.029,CST-1368DR,4140,4462,11426,01.250,552
2023-10-10T09:59:26,42.805,6.029,CST-1368DR,4140,4462,11425,01.250,553
2023-10-10T10:02:28,42.805,6.029,CST-1368DR,4140,4463,11427,01.249,553
2023-10-10T10:05:30,42.805,6.029,CST-1368DR,4140,4462,11426,01.250,552
2023-10-10T10:08:31,42.805,6.029,CST-1368DR,4140,4462,11426,01.250,552
2023-10-10T10:11:33,42.805,6.029,CST-1368DR,4141,4460,11418,01.252,552
2023-10-10T10:14:34,42.805,6.029,CST-1368DR,4140,4456,11410,01.255,553
2023-10-10T10:17:36,42.805,6.029,CST-1368DR,4141,4463,11424,01.250,553
2023-10-10T10:20:37,42.805,6.029,CST-1368DR,4140,4460,11421,01.251,553
2023-10-10T10:23:39,42.805,6.029,CST-1368DR,4140,4460,11420,01.252,553
2023-10-10T10:26:41,42.805,6.029,CST-1368DR,4140,4459,11416,01.253,553
2023-10-10T10:29:42,42.805,6.029,CST-1368DR,4141,4462,11423,01.251,553
2023-10-10T10:32:44,42.805,6.029,CST-1368DR,4140,4462,11424,01.250,553
2023-10-10T10:35:45,42.805,6.029,CST-1368DR,4140,4459,11418,01.252,553
2023-10-10T10:38:47,42.805,6.029,CST-1368DR,4140,4457,11413,01.254,553
2023-10-10T10:41:49,42.805,6.029,CST-1368DR,4140,4462,11425,01.250,553
2023-10-10T10:44:50,42.805,6.029,CST-1368DR,4140,4461,11423,01.251,553
2023-10-10T10:47:52,42.805,6.029,CST-1368DR,4140,4453,11401,01.258,552
2023-10-10T10:50:53,42.805,6.029,CST-1368DR,4140,4459,11417,01.253,553
2023-10-10T10:53:55,42.805,6.029,CST-1368DR,4140,4460,11419,01.252,553
2023-10-10T10:56:57,42.805,6.029,CST-1368DR,4140,4460,11420,01.252,553
2023-10-10T10:59:58,42.805,6.029,CST-1368DR,4141,4459,11415,01.253,553
2023-10-10T11:03:00,42.805,6.029,CST-1368DR,4140,4460,11421,01.251,553
2023-10-10T11:06:01,42.805,6.029,CST-1368DR,4141,4460,11417,01.253,553
2023-10-10T11:09:03,42.805,6.029,CST-1368DR,4140,4462,11424,01.250,552
2023-10-10T11:12:04,42.805,6.029,CST-1368DR,4140,4459,11416,01.253,553
2023-10-10T11:15:06,42.805,6.029,CST-1368DR,4140,4460,11419,01.252,553
2023-10-10T11:18:08,42.805,6.029,CST-1368DR,4140,4462,11424,01.250,553
2023-10-10T11:21:09,42.805,6.029,CST-1368DR,4141,4462,11421,01.251,552
2023-10-10T11:24:11,42.805,6.029,CST-1368DR,4141,4459,11415,01.253,553
2023-10-10T11:27:12,42.805,6.029,CST-1368DR,4140,4461,11421,01.251,553
2023-10-10T11:30:14,42.805,6.029,CST-1368DR,4140,4460,11419,01.252,553
2023-10-10T11:33:15,42.805,6.029,CST-1368DR,4140,4462,11424,01.250,553
2023-10-10T11:36:17,42.805,6.029,CST-1368DR,4140,4459,11417,01.253,552
2023-10-10T11:39:19,42.805,6.029,CST-1368DR,4140,4461,11421,01.251,553
2023-10-10T11:42:20,42.805,6.029,CST-1368DR,4140,4455,11407,01.256,553
2023-10-10T11:45:22,42.805,6.029,CST-1368DR,4140,4461,11423,01.251,553
2023-10-10T11:48:23,42.805,6.029,CST-1368DR,4140,4463,11426,01.250,553
2023-10-10T11:51:25,42.805,6.029,CST-1368DR,4140,4460,11420,01.252,553
2023-10-10T11:54:26,42.805,6.029,CST-1368DR,4140,4461,11421,01.251,553
2023-10-10T11:57:28,42.805,6.029,CST-1368DR,4140,4459,11417,01.253,553
2023-10-10T12:00:30,42.805,6.029,CST-1368DR,4140,4460,11420,01.252,553
2023-10-10T12:03:31,42.805,6.029,CST-1368DR,4140,4462,11424,01.250,553
2023-10-10T12:06:33,42.805,6.029,CST-1368DR,4140,4460,11419,01.252,553
2023-10-10T12:09:34,42.805,6.029,CST-1368DR,4140,4458,11415,01.253,553
2023-10-10T12:12:36,42.805,6.029,CST-1368DR,4140,4462,11424,01.250,552
2023-10-10T12:15:38,42.805,6.029,CST-1368DR,4140,4461,11422,01.251,553
2023-10-10T12:18:39,42.805,6.029,CST-1368DR,4140,4460,11419,01.252,553
2023-10-10T12:21:41,42.805,6.029,CST-1368DR,4140,4457,11412,01.255,553
2023-10-10T12:24:42,42.805,6.029,CST-1368DR,4140,4461,11421,01.251,553
2023-10-10T12:27:44,42.805,6.029,CST-1368DR,4140,4461,11421,01.251,553
2023-10-10T12:30:47,42.805,6.029,CST-1368DR,4140,4457,11412,01.255,553
2023-10-10T12:33:49,42.805,6.029,CST-1368DR,4140,4459,11417,01.253,553
2023-10-10T12:36:50,42.805,6.029,CST-1368DR,4141,4459,11415,01.253,553
2023-10-10T12:39:52,42.805,6.029,CST-1368DR,4140,4460,11419,01.252,553
2023-10-10T12:42:53,42.805,6.029,CST-1368DR,4140,4462,11424,01.250,553
2023-10-10T12:45:55,42.805,6.029,CST-1368DR,4140,4459,11417,01.253,553
2023-10-10T12:48:56,42.805,6.029,CST-1368DR,4140,4459,11416,01.253,553
2023-10-10T12:51:58,42.805,6.029,CST-1368DR,4140,4460,11420,01.252,553
2023-10-10T12:55:00,42.805,6.029,CST-1368DR,4140,4461,11423,01.251,552
2023-10-10T12:58:01,42.805,6.029,CST-1368DR,4140,4457,11412,01.255,553
2023-10-10T13:01:03,42.805,6.029,CST-1368DR,4140,4455,11406,01.257,552
2023-10-10T13:04:04,42.805,6.029,CST-1368DR,4140,4457,11413,01.254,553
2023-10-10T13:07:06,42.805,6.029,CST-1368DR,4140,4459,11417,01.253,553
2023-10-10T13:10:08,42.805,6.029,CST-1368DR,4140,4457,11413,01.254,553
2023-10-10T13:13:09,42.805,6.029,CST-1368DR,4140,4457,11412,01.255,553
2023-10-10T13:16:11,42.805,6.029,CST-1368DR,4140,4456,11409,01.256,553
2023-10-10T13:19:12,42.805,6.029,CST-1368DR,4140,4457,11413,01.254,553
2023-10-10T13:22:14,42.805,6.029,CST-1368DR,4140,4457,11413,01.254,553
2023-10-10T13:25:15,42.805,6.029,CST-1368DR,4140,4456,11409,01.256,553
2023-10-10T13:28:17,42.805,6.029,CST-1368DR,4140,4457,11413,01.254,553
2023-10-10T13:31:19,42.805,6.029,CST-1368DR,4140,4458,11415,01.253,553
2023-10-10T13:34:20,42.805,6.029,CST-1368DR,4140,4456,11409,01.256,552
2023-10-10T13:37:22,42.805,6.029,CST-1368DR,4140,4458,11415,01.253,553
2023-10-10T13:40:23,42.805,6.029,CST-1368DR,4140,4457,11413,01.254,553
2023-10-10T13:43:25,42.805,6.029,CST-1368DR,4140,4459,11417,01.253,553
2023-10-10T13:46:27,42.805,6.029,CST-1368DR,4140,4455,11407,01.256,552
2023-10-10T13:49:28,42.805,6.029,CST-1368DR,4140,4456,11410,01.255,553
2023-10-10T13:52:30,42.805,6.029,CST-1368DR,4140,4457,11413,01.254,552
2023-10-10T13:55:31,42.805,6.029,CST-1368DR,4140,4454,11403,01.258,552
2023-10-10T13:58:33,42.805,6.029,CST-1368DR,4140,4456,11408,01.256,553
2023-10-10T14:01:34,42.805,6.029,CST-1368DR,4140,4455,11408,01.256,552
2023-10-10T14:04:36,42.805,6.029,CST-1368DR,4140,4454,11404,01.257,553
2023-10-10T14:07:38,42.805,6.029,CST-1368DR,4140,4455,11406,01.257,553
2023-10-10T14:10:39,42.805,6.029,CST-1368DR,4140,4455,11406,01.257,553
2023-10-10T14:13:41,42.805,6.029,CST-1368DR,4140,4454,11404,01.257,553
2023-10-10T14:16:42,42.805,6.029,CST-1368DR,4140,4455,11407,01.256,553
2023-10-10T14:19:44,42.805,6.029,CST-1368DR,4140,4452,11398,01.259,553
2023-10-10T14:22:45,42.805,6.029,CST-1368DR,4140,4457,11413,01.254,553
2023-10-10T14:25:47,42.805,6.029,CST-1368DR,4140,4455,11407,01.256,553
2023-10-10T14:28:49,42.805,6.029,CST-1368DR,4140,4455,11407,01.256,553
2023-10-10T14:31:50,42.805,6.029,CST-1368DR,4140,4454,11403,01.258,553
2023-10-10T14:34:52,42.805,6.029,CST-1368DR,4140,4457,11413,01.254,553
2023-10-10T14:37:53,42.805,6.029,CST-1368DR,4140,4458,11414,01.254,553
2023-10-10T14:40:55,42.805,6.029,CST-1368DR,4140,4457,11413,01.254,552
2023-10-10T14:43:57,42.805,6.029,CST-1368DR,4140,4456,11410,01.255,552
2023-10-10T14:46:58,42.805,6.029,CST-1368DR,4140,4455,11408,01.256,553
2023-10-10T14:50:00,42.805,6.029,CST-1368DR,4140,4453,11401,01.258,553
2023-10-10T14:53:01,42.805,6.029,CST-1368DR,4140,4457,11411,01.255,553
2023-10-10T14:56:03,42.805,6.029,CST-1368DR,4140,4457,11412,01.255,553
2023-10-10T14:59:05,42.805,6.029,CST-1368DR,4140,4457,11413,01.254,552
2023-10-10T15:02:06,42.805,6.029,CST-1368DR,4140,4457,11412,01.255,553
2023-10-10T15:05:08,42.805,6.029,CST-1368DR,4140,4457,11412,01.255,553
2023-10-10T15:08:09,42.805,6.029,CST-1368DR,4140,4456,11410,01.255,553
2023-10-10T15:11:11,42.805,6.029,CST-1368DR,4140,4456,11410,01.255,553
2023-10-10T15:14:12,42.805,6.029,CST-1368DR,4140,4457,11413,01.254,553
2023-10-10T15:17:14,42.805,6.029,CST-1368DR,4140,4457,11411,01.255,553
2023-10-10T15:20:16,42.805,6.029,CST-1368DR,4140,4456,11410,01.255,552
2023-10-10T15:23:17,42.805,6.029,CST-1368DR,4140,4458,11415,01.253,553
2023-10-10T15:26:19,42.805,6.029,CST-1368DR,4140,4456,11409,01.256,553
2023-10-10T15:29:20,42.805,6.029,CST-1368DR,4140,4457,11411,01.255,553
2023-10-10T15:32:22,42.805,6.029,CST-1368DR,4140,4456,11410,01.255,553
2023-10-10T15:35:23,42.805,6.029,CST-1368DR,4140,4457,11413,01.254,553
2023-10-10T15:38:25,42.805,6.029,CST-1368DR,4140,4455,11407,01.256,553
2023-10-10T15:41:27,42.805,6.029,CST-1368DR,4140,4456,11410,01.255,553
2023-10-10T15:44:28,42.805,6.029,CST-1368DR,4140,4457,11412,01.255,552
2023-10-10T15:47:30,42.805,6.029,CST-1368DR,4140,4457,11412,01.255,552
2023-10-10T15:50:31,42.805,6.029,CST-1368DR,4140,4455,11407,01.256,553
2023-10-10T15:53:33,42.805,6.029,CST-1368DR,4140,4457,11411,01.255,553
2023-10-10T15:56:34,42.805,6.029,CST-1368DR,4140,4455,11406,01.257,553
2023-10-10T15:59:36,42.805,6.029,CST-1368DR,4140,4456,11408,01.256,553
2023-10-10T16:02:38,42.805,6.029,CST-1368DR,4140,4457,11411,01.255,553
2023-10-10T16:05:39,42.805,6.029,CST-1368DR,4140,4454,11404,01.257,553
2023-10-10T16:08:41,42.805,6.029,CST-1368DR,4140,4455,11408,01.256,553
2023-10-10T16:11:42,42.805,6.029,CST-1368DR,4140,4456,11408,01.256,553
2023-10-10T16:14:44,42.805,6.029,CST-1368DR,4140,4456,11408,01.256,553
2023-10-10T16:17:46,42.805,6.029,CST-1368DR,4140,4456,11409,01.256,553
2023-10-10T16:20:47,42.805,6.029,CST-1368DR,4140,4457,11411,01.255,552
2023-10-10T16:23:49,42.805,6.029,CST-1368DR,4140,4457,11412,01.255,553
2023-10-10T16:26:50,42.805,6.029,CST-1368DR,4140,4457,11411,01.255,552
2023-10-10T16:29:52,42.805,6.029,CST-1368DR,4140,4456,11410,01.255,553
2023-10-10T16:32:54,42.805,6.029,CST-1368DR,4140,4455,11407,01.256,553
2023-10-10T16:35:56,42.805,6.029,CST-1368DR,4140,4457,11412,01.255,553